Location: Norderney
(53.7000°N, 7.1500°E)
Time: 01:26:13
(UTC+02:00)

ACS3 Solar Sail - Pass Details

Date: 21 August 2024
Orbit: 979 x 1031 km, 97.4° (Epoch: 10 September)

Event Time Altitude Azimuth Distance (km) Brightness Sun altitude
Exits shadow 22:53:22 - 194° (SSW) 3,461 4.3 -16.2°
Reaches altitude 10° 22:55:15 10° 200° (SSW) 2,809 3.9 -16.4°
Maximum altitude 23:01:08 39° 268° (W) 1,510 3.1 -16.9°
Drops below altitude 10° 23:07:08 10° 336° (NNW) 2,858 5.5 -17.5°
Sets 23:09:53 0° 344° (NNW) 3,819 6.2 -17.7°
